Miscellaneous Local Product
Issued by NWS Hastings, NE

Home | Current Version | Previous Version | Text Only | Print | Product List | Glossary Off
Versions: 1 2 3 4 5 6 7 8 9 10 11 12 13 14 15 16 17 18 19 20 21 22 23 24 25 26 27 28 29 30 31 32 33 34 35 36 37 38 39 40 41 42 43 44 45 46 47 48 49 50

000
AXUS43 KGID 220302
MISGRI

GID CWA HOURLY WEATHER ROUNDUP
NATIONAL WEATHER SERVICE HASTINGS NE
1000 PM CDT TUE OCT 21 2014

NOTE: "FAIR" INDICATES FEW OR NO CLOUDS BELOW 12,000 FEET WITH NO
SIGNIFICANT WEATHER AND/OR OBSTRUCTIONS TO VISIBILITY.

...SOUTH CENTRAL NEBRASKA...

CITY           SKY/WX    TMP DP  RH WIND       PRES   REMARKS
GRAND ISLAND   CLEAR     64  48  56 SE13      29.98S
HASTINGS       CLEAR     62  49  62 SE12      29.98S
KEARNEY        CLEAR     63  52  67 SE16G22   29.97S
ORD            CLEAR     60  51  72 E7        29.94S
YORK           PTCLDY    61  41  48 SE13      30.01S
AURORA         CLEAR     60  40  47 SE10      30.00R HAZE
LEXINGTON      CLEAR     66  58  76 SE14      29.93F
HOLDREGE       CLEAR     64  55  72 SE14      29.96S
HEBRON         CLEAR     60  47  61 SE8       30.02S

...NEBRASKA PANHANDLE...

CITY           SKY/WX    TMP DP  RH WIND       PRES   REMARKS
CHADRON        CLOUDY    63  44  50 SW7       29.81S
ALLIANCE       PTCLDY    52  43  71 CALM      29.87S
SCOTTSBLUFF    MOCLDY    63  46  54 NW14      29.88R
SIDNEY         PTCLDY    57  40  52 S12       29.90S

...WESTERN AND NORTH CENTRAL NEBRASKA...

CITY           SKY/WX    TMP DP  RH WIND       PRES   REMARKS
VALENTINE      PTCLDY    67  55  65 S23G30    29.85S
AINSWORTH      PTCLDY    64  51  63 S16G23    29.89S
ONEILL         CLEAR     64  42  45 SE15      29.95S
BROKEN BOW     PTCLDY    63  53  70 SE13      29.94S
IMPERIAL       PTCLDY    63  48  58 SE12      29.91R
NORTH PLATTE   CLEAR     62  54  74 E9        29.91R
MCCOOK         CLEAR     67  53  61 S13       29.93R

...EASTERN NEBRASKA...

CITY           SKY/WX    TMP DP  RH WIND       PRES   REMARKS
NORFOLK        CLEAR     61  39  44 SE16      30.01R
SO SIOUX CITY  CLEAR     56  41  57 SE7       30.06R
TEKAMAH        CLEAR     55  40  56 SE9       30.06R
COLUMBUS       CLEAR     59  37  44 SE6       30.04R
ALBION         CLEAR     58  41  53 SE9       29.99S
OMAHA EPPLEY   CLEAR     58  40  51 S8        30.07R
OFFUTT AFB     CLEAR     56  44  66 E10       30.07R
MILLARD        CLEAR     59  41  52 SE5       30.06R
LINCOLN        CLEAR     62  40  44 SE10      30.05R
NEBRASKA CITY  CLEAR     57  36  46 SE9       30.08R
BEATRICE       CLEAR     61  42  49 SE9       30.04S
FALLS CITY     CLEAR     56  42  59 SE7       30.08R

...NORTHERN KANSAS...

CITY           SKY/WX    TMP DP  RH WIND       PRES   REMARKS
GOODLAND       PTCLDY    60  46  59 S14       29.96R
HILL CITY      CLEAR     69  54  58 S14       29.96R
NORTON         CLEAR     66  52  59 SE9       29.94
PHILLIPSBURG   CLEAR     66  59  77 SE8       29.96S
SMITH CENTER   CLEAR     64  55  72 SE16      29.98R
BELOIT         CLEAR     64  55  72 SE7       29.99R
HAYS           CLEAR     64  54  68 SE13      29.98S
RUSSELL        CLEAR     65  57  75 S14       29.98S
CONCORDIA      CLEAR     64  55  72 SE10      30.01R
SALINA         CLEAR     66  57  72 SE10      30.02R
TOPEKA         CLEAR     58  46  64 SE7       30.09R



USA.gov is the U.S. government's official web portal to all federal, state and local government web resources and services.